| time (UTC) | temp F | wind direction | speed MPH | gust MPH | rain 1hr in | rain 24hr in | rain mn in | humidity % | barometer mb |
| 20260504011534 | 61 | 250 | 1.0 | 5.0 | 0.00 | 0.00 | 0.00 | 36 | 1002.4 |
| 20260504010030 | 62 | 247 | 2.0 | 7.0 | 0.00 | 0.00 | 0.00 | 35 | 1002.6 |
| 20260504004530 | 63 | 261 | 2.0 | 6.0 | 0.00 | 0.00 | 0.00 | 34 | 1002.7 |
| 20260504003038 | 64 | 257 | 3.0 | 7.0 | 0.00 | 0.00 | 0.00 | 32 | 1002.8 |
| 20260504001528 | 64 | 261 | 3.0 | 11.0 | 0.00 | 0.00 | 0.00 | 31 | 1002.8 |
| 20260504000050 | 65 | 248 | 3.0 | 8.0 | 0.00 | 0.00 | 0.00 | 29 | 1002.8 |
| 20260503234525 | 66 | 270 | 1.0 | 9.0 | 0.00 | 0.00 | 0.00 | 30 | 1003.0 |
| 20260503233023 | 65 | 263 | 3.0 | 8.0 | 0.00 | 0.00 | 0.00 | 29 | 1003.2 |
| 20260503231522 | 66 | 272 | 4.0 | 8.0 | 0.00 | 0.00 | 0.00 | 29 | 1003.4 |
| 20260503230020 | 66 | 270 | 3.0 | 10.0 | 0.00 | 0.00 | 0.00 | 30 | 1003.6 |
| 20260503224520 | 66 | 285 | 0.0 | 8.0 | 0.00 | 0.00 | 0.00 | 29 | 1003.6 |
| 20260503223019 | 66 | 269 | 4.0 | 9.0 | 0.00 | 0.00 | 0.00 | 28 | 1003.6 |
| 20260503221517 | 66 | 260 | 3.0 | 12.0 | 0.00 | 0.00 | 0.00 | 28 | 1003.6 |
| 20260503220016 | 66 | 244 | 7.0 | 12.0 | 0.00 | 0.00 | 0.00 | 28 | 1003.8 |
| 20260503214515 | 66 | 250 | 7.0 | 13.0 | 0.00 | 0.00 | 0.00 | 28 | 1003.9 |
| 20260503213011 | 65 | 250 | 4.0 | 12.0 | 0.00 | 0.00 | 0.00 | 28 | 1004.2 |
| 20260503211514 | 65 | 262 | 6.0 | 12.0 | 0.00 | 0.00 | 0.00 | 29 | 1004.4 |
| 20260503210008 | 65 | 248 | 5.0 | 13.0 | 0.00 | 0.00 | 0.00 | 30 | 1004.6 |
| 20260503204504 | 64 | 263 | 6.0 | 13.0 | 0.00 | 0.00 | 0.00 | 29 | 1004.8 |
| 20260503203002 | 64 | 304 | 3.0 | 11.0 | 0.00 | 0.00 | 0.00 | 30 | 1005.2 |
| 20260503201501 | 64 | 271 | 6.0 | 12.0 | 0.00 | 0.00 | 0.00 | 30 | 1005.4 |
| 20260503200001 | 62 | 269 | 8.0 | 14.0 | 0.00 | 0.00 | 0.00 | 31 | 1005.6 |
| 20260503194601 | 63 | 275 | 7.0 | 18.0 | 0.00 | 0.00 | 0.00 | 30 | 1005.6 |
| 20260503193100 | 62 | 285 | 10.0 | 21.0 | 0.00 | 0.00 | 0.00 | 30 | 1005.8 |
| 20260503191604 | 62 | 263 | 7.0 | 15.0 | 0.00 | 0.00 | 0.00 | 30 | 1005.8 |
| 20260503184558 | 64 | 279 | 6.0 | 12.0 | 0.00 | 0.00 | 0.00 | 30 | 1006.1 |
| 20260503183056 | 63 | 327 | 3.0 | 10.0 | 0.00 | 0.00 | 0.00 | 30 | 1006.4 |
| 20260503181603 | 63 | 306 | 2.0 | 6.0 | 0.00 | 0.00 | 0.00 | 29 | 1006.3 |
| 20260503180053 | 63 | 293 | 3.0 | 8.0 | 0.00 | 0.00 | 0.00 | 31 | 1006.6 |
| 20260503174552 | 63 | 292 | 1.0 | 11.0 | 0.00 | 0.00 | 0.00 | 28 | 1006.6 |
| 20260503173056 | 62 | 311 | 3.0 | 9.0 | 0.00 | 0.00 | 0.00 | 26 | 1006.7 |
| 20260503171546 | 62 | 22 | 2.0 | 9.0 | 0.00 | 0.00 | 0.00 | 26 | 1006.8 |
| 20260503081531 | 48 | 88 | 0.0 | 0.0 | 0.00 | 0.00 | 0.00 | 68 | 1005.6 |
| 20260503071521 | 50 | 88 | 0.0 | 0.0 | 0.00 | 0.00 | 0.00 | 62 | 1005.9 |
| 20260503054510 | 51 | 88 | 0.0 | 3.0 | 0.00 | 0.00 | 0.00 | 64 | 1006.9 |
| 20260503053007 | 52 | 86 | 0.0 | 5.0 | 0.00 | 0.00 | 0.00 | 62 | 1007.1 |
| 20260503051502 | 52 | 84 | 0.0 | 1.0 | 0.00 | 0.00 | 0.00 | 62 | 1007.7 |
| 20260503050103 | 52 | 84 | 0.0 | 1.0 | 0.00 | 0.00 | 0.00 | 61 | 1007.5 |
| 20260503044610 | 52 | 84 | 0.0 | 2.0 | 0.00 | 0.00 | 0.00 | 62 | 1007.6 |
| 20260503043112 | 51 | 17 | 4.0 | 8.0 | 0.00 | 0.00 | 0.00 | 64 | 1007.9 |
| 20260503041604 | 51 | 100 | 0.0 | 0.0 | 0.00 | 0.00 | 0.00 | 64 | 1007.6 |
| 20260503040106 | 51 | 100 | 0.0 | 0.0 | 0.00 | 0.00 | 0.00 | 64 | 1007.4 |
| 20260503034554 | 52 | 100 | 0.0 | 0.0 | 0.00 | 0.00 | 0.00 | 62 | 1007.9 |
| 20260503033106 | 53 | 100 | 0.0 | 0.0 | 0.00 | 0.00 | 0.00 | 62 | 1008.2 |
| 20260503031552 | 53 | 101 | 0.0 | 0.0 | 0.00 | 0.00 | 0.00 | 61 | 1008.2 |
| 20260503030052 | 54 | 101 | 0.0 | 1.0 | 0.00 | 0.00 | 0.00 | 60 | 1008.4 |
| 20260503024552 | 55 | 101 | 0.0 | 3.0 | 0.00 | 0.00 | 0.00 | 58 | 1008.5 |
| 20260503023057 | 55 | 192 | 0.0 | 0.0 | 0.00 | 0.00 | 0.00 | 58 | 1008.9 |
| 20260503021550 | 57 | 194 | 0.0 | 2.0 | 0.00 | 0.00 | 0.00 | 54 | 1009.1 |
| 20260503020044 | 57 | 267 | 2.0 | 14.0 | 0.00 | 0.00 | 0.00 | 51 | 1009.8 |
| 20260503014543 | 59 | 275 | 4.0 | 9.0 | 0.00 | 0.00 | 0.00 | 45 | 1009.6 |
| 20260503013043 | 59 | 232 | 5.0 | 9.0 | 0.00 | 0.00 | 0.00 | 43 | 1009.3 |